Regional Weather Roundup
Issued by NWS State College, PA

Home | Current Version | Previous Version | Graphics & Text | Print | Product List | Glossary On
Versions: 1 2 3 4 5 6 7 8 9 10 11 12 13 14 15 16 17 18 19 20 21 22 23 24 25 26 27 28 29 30 31 32 33 34 35 36 37 38 39 40 41 42 43 44 45 46 47 48 49 50
000
ASUS41 KCTP 240610
RWRCTP

REGIONAL WEATHER ROUNDUP
NATIONAL WEATHER SERVICE STATE COLLEGE PA
100 AM EST FRI FEB 24 2017

Note: "fair" indicates few or no clouds below 12,000 feet with no
significant weather and/or obstructions to visibility.

* = STATION THAT DOES NOT REPORT PRECIPITATION /E.G. RAIN...SNOW...ETC/
    THUNDER OR FOG.

PAZ002>004-007>009-013>016-020>023-029>032-240700-
WESTERN PENNSYLVANIA

CITY           SKY/WX    TMP DP  RH WIND       PRES   REMARKS
ERIE           MOCLDY    47  44  90 NE10      29.80S FOG
MEADVILLE      CLOUDY    54  51  90 VRB3      29.80S
FRANKLIN*      CLOUDY    54  50  87 SE6       29.83S
NEW CASTLE     FOG       53  53 100 CALM      29.82R VSB 1/2
BEAVER COUNTY  NOT AVBL
BUTLER*        CLOUDY    54  52  94 CALM      29.83S
PITTSBURGH INT CLOUDY    57  53  86 S3        29.81S
PITTSBURGH     CLOUDY    61  50  67 S7        29.82R
INDIANA*       MOCLDY    55  52  88 CALM      29.87S
LATROBE        CLOUDY    57  54  88 CALM      29.84F
WASHINGTON CO* CLOUDY    54  50  87 CALM      29.84S
$$

PAZ004>006-010>012-017>019-024>028-033>037-041-042-045-046-049>053-240700-
CENTRAL PENNSYLVANIA

CITY           SKY/WX    TMP DP  RH WIND       PRES   REMARKS
BRADFORD       LGT RAIN  50  50 100 S3        29.85S FOG
DUBOIS         CLOUDY    57  50  77 CALM      29.83S
CLEARFIELD       N/A    N/A N/A N/A MISG      29.85F
JOHNSTOWN      MOCLDY    55  50  83 S7        29.85F
ALTOONA        CLOUDY    56  50  80 NW3       29.86F
STATE COLLEGE  CLOUDY    56  51  82 W3        29.85F
WILLIAMSPORT   CLOUDY    51  48  89 CALM      29.85S
SELINSGROVE    CLOUDY    50  48  93 NW3       29.86S
FT INDIANTOWN  PTCLDY    52  52 100 CALM      29.87S
CAPITAL CITY   PTCLDY    61  50  67 CALM      29.86S
HARRISBURG     PTCLDY    56  50  80 E6        29.86R
YORK           CLEAR     63  52  67 S8        29.86S
$$

PAZ038>040-043-044-047-048-054-055-060>062-067>071-240700-
EASTERN PENNSYLVANIA

CITY           SKY/WX    TMP DP  RH WIND       PRES   REMARKS
SCRANTON       MOCLDY    54  53  97 CALM      29.86S
MOUNT POCONO   CLOUDY    51  51 100 CALM      29.89F
ALLENTOWN      CLOUDY    57  49  74 S3        29.88F
QUAKERTOWN*    CLEAR     57  50  77 SW6       29.90F
READING        CLOUDY    61  53  75 SW6       29.88S
LANCASTER      CLOUDY    55  52  89 NE3       29.88S
COATESVILLE    PTCLDY    55  52  88 CALM      29.92S
POTTSTOWN      MOCLDY    58  51  78 CALM      29.91S
BLUE BELL      CLEAR     50  48  93 CALM      29.90S
DOYLESTOWN     PTCLDY    56  51  84 S5        29.90S
WILLOW GROVE   NOT AVBL
NORTH PHILA    CLEAR     58  51  78 S3        29.93R
PHILADELPHIA   PTCLDY    56  50  80 S7        29.92S
$$




USA.gov is the U.S. government's official web portal to all federal, state and local government web resources and services.